,,Stat6,,Stat2,,Stat8,,Stat9,,Stat10,,Wind1,,Wind1,
time,status,PA1M_AVG,status,PR1M_SUM,status,RH1M_AVG,status,SR1M_AVG,status,TA1M_AVG,status,W1dAve1m,status,W1sAve1m,
2005-11-04, 00:00:00,VALID,918.923,VALID,0,VALID,100,VALID,0,VALID,18.5971,VALID,16,VALID,0.12407,
2005-11-04, 00:01:00,VALID,918.908,VALID,0,VALID,100,VALID,-0.0169808,VALID,18.5904,VALID,15,VALID,0.419965,
2005-11-04, 00:02:00,VALID,918.891,VALID,0,VALID,100,VALID,-0.0339617,VALID,18.607,VALID,356,VALID,0.872768,
2005-11-04, 00:03:00,VALID,918.892,VALID,0,VALID,100,VALID,-0.0169808,VALID,18.5934,VALID,346,VALID,0.373785,
2005-11-04, 00:04:00,VALID,918.885,VALID,0,VALID,100,VALID,-0.0339617,VALID,18.6068,VALID,278,VALID,0.211825,
2005-11-04, 00:05:00,VALID,918.888,VALID,0,VALID,100,VALID,-0.0679233,VALID,18.6137,VALID,190,VALID,0.398047,
2005-11-04, 00:06:00,VALID,918.872,VALID,0,VALID,100,VALID,-0.0679233,VALID,18.6137,VALID,190,VALID,0.0824855,
2005-11-04, 00:07:00,VALID,918.854,VALID,0,VALID,100,VALID,-0.0339617,VALID,18.6237,VALID,190,VALID,0.126453,
2005-11-04, 00:08:00,VALID,918.846,VALID,0,VALID,100,VALID,-0.0509425,VALID,18.6165,VALID,190,VALID,0.344082,
2005-11-04, 00:09:00,VALID,918.827,VALID,0,VALID,100,VALID,-0.0339617,VALID,18.6234,VALID,353,VALID,1.45149,
2005-11-04, 00:10:00,VALID,918.844,VALID,0,VALID,100,VALID,-0.0849042,VALID,18.6523,VALID,269,VALID,0.714658,
2005-11-04, 00:11:00,VALID,918.813,VALID,0,VALID,100,VALID,-0.0339617,VALID,18.6716,VALID,346,VALID,0.936133,
2005-11-04, 00:12:00,VALID,918.791,VALID,0,VALID,100,VALID,-0.0339617,VALID,18.6913,VALID,1,VALID,1.39317,
2005-11-04, 00:13:00,VALID,918.793,VALID,0,VALID,100,VALID,-0.0679233,VALID,18.7072,VALID,303,VALID,1.23674,
2005-11-04, 00:14:00,VALID,918.799,VALID,0,VALID,100,VALID,-0.0679233,VALID,18.7425,VALID,259,VALID,0.718229,
2005-11-04, 00:15:00,VALID,918.771,VALID,0,VALID,100,VALID,-0.0679233,VALID,18.7718,VALID,213,VALID,0.306108,
2005-11-04, 00:16:00,VALID,918.77,VALID,0,VALID,100,VALID,-0.0509425,VALID,18.7914,VALID,217,VALID,0.280134,
2005-11-04, 00:17:00,VALID,918.775,VALID,0,VALID,100,VALID,-0.0509425,VALID,18.8046,VALID,237,VALID,0.240234,
2005-11-04, 00:18:00,VALID,918.773,VALID,0,VALID,100,VALID,-0.0339617,VALID,18.8073,VALID,26,VALID,0.804501,
2005-11-04, 00:19:00,VALID,918.784,VALID,0,VALID,100,VALID,0,VALID,18.8069,VALID,21,VALID,0.794017,
2005-11-04, 00:20:00,VALID,918.756,VALID,0,VALID,100,VALID,0,VALID,18.8101,VALID,26,VALID,0.707422,
2005-11-04, 00:21:00,VALID,918.762,VALID,0,VALID,100,VALID,-0.0169808,VALID,18.8205,VALID,18,VALID,0.679297,
2005-11-04, 00:22:00,VALID,918.759,VALID,0,VALID,100,VALID,-0.0339617,VALID,18.8173,VALID,20,VALID,0.358854,
2005-11-04, 00:23:00,VALID,918.73,VALID,0,VALID,100,VALID,0,VALID,18.8341,VALID,20,VALID,0.319382,
2005-11-04, 00:24:00,VALID,918.717,VALID,0,VALID,100,VALID,-0.0339617,VALID,18.8173,VALID,20,VALID,0.40952,
2005-11-04, 00:25:00,VALID,918.7,VALID,0,VALID,100,VALID,0,VALID,18.8205,VALID,21,VALID,0.0323401,
2005-11-04, 00:26:00,VALID,918.692,VALID,0,VALID,100,VALID,-0.0339617,VALID,18.8041,VALID,10,VALID,0.380451,
2005-11-04, 00:27:00,VALID,918.673,VALID,0,VALID,100,VALID,-0.0169808,VALID,18.8076,VALID,184,VALID,0.31141,
2005-11-04, 00:28:00,VALID,918.627,VALID,0,VALID,100,VALID,0.0169808,VALID,18.7843,VALID,97,VALID,0.743229,
2005-11-04, 00:29:00,VALID,918.635,VALID,0,VALID,100,VALID,0,VALID,18.788,VALID,179,VALID,0.461664,
2005-11-04, 00:30:00,VALID,918.611,VALID,0,VALID,100,VALID,-0.0509425,VALID,18.7944,VALID,175,VALID,0.141369,
2005-11-04, 00:31:00,VALID,918.573,VALID,0,VALID,100,VALID,-0.0169808,VALID,18.7947,VALID,129,VALID,0.380814,
2005-11-04, 00:32:00,VALID,918.557,VALID,0,VALID,100,VALID,-0.0169808,VALID,18.7942,VALID,317,VALID,0.935971,
2005-11-04, 00:33:00,VALID,918.542,VALID,0,VALID,100,VALID,0.0169808,VALID,18.8039,VALID,344,VALID,0.465298,
2005-11-04, 00:34:00,VALID,918.515,VALID,0,VALID,100,VALID,-0.0169808,VALID,18.817,VALID,18,VALID,0.183771,
2005-11-04, 00:35:00,VALID,918.498,VALID,0,VALID,100,VALID,-0.0339617,VALID,18.827,VALID,18,VALID,0.00710227,
2005-11-04, 00:36:00,VALID,918.495,VALID,0,VALID,100,VALID,-0.0339617,VALID,18.8332,VALID,18,VALID,0.258681,
2005-11-04, 00:37:00,VALID,918.462,VALID,0,VALID,100,VALID,-0.0339617,VALID,18.8332,VALID,18,VALID,0.77439,
2005-11-04, 00:38:00,VALID,918.434,VALID,0,VALID,100,VALID,-0.0169808,VALID,18.8429,VALID,26,VALID,0.732617,
2005-11-04, 00:39:00,VALID,918.416,VALID,0,VALID,100,VALID,0,VALID,18.8431,VALID,14,VALID,0.330256,
2005-11-04, 00:40:00,VALID,918.41,VALID,0,VALID,100,VALID,-0.0169808,VALID,18.827,VALID,9,VALID,0.0105469,
2005-11-04, 00:41:00,VALID,918.377,VALID,0,VALID,100,VALID,-0.0679233,VALID,18.8337,VALID,9,VALID,0.407493,
2005-11-04, 00:42:00,VALID,918.346,VALID,0,VALID,100,VALID,-0.0339617,VALID,18.8337,VALID,14,VALID,0.769326,
2005-11-04, 00:43:00,VALID,918.334,VALID,0,VALID,100,VALID,0,VALID,18.8362,VALID,15,VALID,0.398438,
2005-11-04, 00:44:00,VALID,918.321,VALID,0,VALID,100,VALID,-0.0169808,VALID,18.8364,VALID,15,VALID,0.16495,
2005-11-04, 00:45:00,VALID,918.316,VALID,0,VALID,100,VALID,-0.0339617,VALID,18.8429,VALID,15,VALID,0.278125,
2005-11-04, 00:46:00,VALID,918.305,VALID,0,VALID,100,VALID,-0.0339617,VALID,18.8429,VALID,15,VALID,0.0746094,
2005-11-04, 00:47:00,VALID,918.272,VALID,0,VALID,100,VALID,-0.0169808,VALID,18.8327,VALID,7,VALID,0.386905,
2005-11-04, 00:48:00,VALID,918.233,VALID,0,VALID,100,VALID,-0.0169808,VALID,18.827,VALID,5,VALID,0.492788,
2005-11-04, 00:49:00,VALID,918.23,VALID,0,VALID,100,VALID,-0.0339617,VALID,18.8369,VALID,357,VALID,0.486151,
2005-11-04, 00:50:00,VALID,918.199,VALID,0,VALID,100,VALID,-0.0339617,VALID,18.8367,VALID,357,VALID,0.564732,
2005-11-04, 00:51:00,VALID,918.18,VALID,0,VALID,100,VALID,-0.0339617,VALID,18.8337,VALID,15,VALID,0.75,
2005-11-04, 00:52:00,VALID,918.145,VALID,0,VALID,100,VALID,-0.0169808,VALID,18.83,VALID,7,VALID,0.274457,
2005-11-04, 00:53:00,VALID,918.13,VALID,0,VALID,100,VALID,0,VALID,18.83,VALID,9,VALID,0.597565,
2005-11-04, 00:54:00,VALID,918.131,VALID,0,VALID,99.9964,VALID,0,VALID,18.8491,VALID,359,VALID,0.785866,
2005-11-04, 00:55:00,VALID,918.119,VALID,0,VALID,99.8375,VALID,-0.0509425,VALID,18.866,VALID,350,VALID,1.03622,
2005-11-04, 00:56:00,VALID,918.087,VALID,0,VALID,99.7383,VALID,-0.0509425,VALID,18.8782,VALID,3,VALID,0.798328,
2005-11-04, 00:57:00,VALID,918.066,VALID,0,VALID,99.7091,VALID,-0.0509425,VALID,18.8881,VALID,10,VALID,0.587081,
2005-11-04, 00:58:00,VALID,918.05,VALID,0,VALID,99.6442,VALID,-0.0169808,VALID,18.8916,VALID,10,VALID,0.793679,
2005-11-04, 00:59:00,VALID,918.026,VALID,0,VALID,99.6099,VALID,-0.0509425,VALID,18.8819,VALID,356,VALID,0.593369,
2005-11-04, 01:00:00,VALID,918.023,VALID,0,VALID,99.5196,VALID,-0.0169808,VALID,18.8715,VALID,336,VALID,0.919667,
2005-11-04, 01:01:00,VALID,918.017,VALID,0,VALID,99.3912,VALID,-0.0339617,VALID,18.9271,VALID,12,VALID,0.471912,
2005-11-04, 01:02:00,VALID,917.979,VALID,0,VALID,99.3848,VALID,0,VALID,18.9403,VALID,20,VALID,0.806641,
2005-11-04, 01:03:00,VALID,917.965,VALID,0,VALID,99.3784,VALID,0,VALID,18.9497,VALID,333,VALID,0.657493,
2005-11-04, 01:04:00,VALID,917.954,VALID,0,VALID,99.4039,VALID,-0.0339617,VALID,18.9336,VALID,333,VALID,0.438565,
2005-11-04, 01:05:00,VALID,917.924,VALID,0,VALID,99.573,VALID,-0.0849042,VALID,18.9207,VALID,19,VALID,0.876953,
2005-11-04, 01:06:00,VALID,917.888,VALID,0,VALID,99.6111,VALID,-0.0169808,VALID,18.9043,VALID,349,VALID,1.0174,
2005-11-04, 01:07:00,VALID,917.89,VALID,0,VALID,99.6544,VALID,0,VALID,18.8817,VALID,354,VALID,0.79723,
2005-11-04, 01:08:00,VALID,917.898,VALID,0,VALID,99.6124,VALID,0,VALID,18.8586,VALID,325,VALID,0.802326,
2005-11-04, 01:09:00,VALID,917.884,VALID,0,VALID,99.5883,VALID,0,VALID,18.8653,VALID,295,VALID,0.338986,
2005-11-04, 01:10:00,VALID,917.873,VALID,0,VALID,99.6251,VALID,-0.0339617,VALID,18.8784,VALID,320,VALID,0.410247,
2005-11-04, 01:11:00,VALID,917.853,VALID,0,VALID,99.6976,VALID,0,VALID,18.8854,VALID,350,VALID,0.513808,
2005-11-04, 01:12:00,VALID,917.853,VALID,0,VALID,99.7065,VALID,-0.0509425,VALID,18.8817,VALID,345,VALID,0.855841,
2005-11-04, 01:13:00,VALID,917.837,VALID,0,VALID,99.5781,VALID,-0.0339617,VALID,18.8752,VALID,359,VALID,1.42057,
2005-11-04, 01:14:00,VALID,917.835,VALID,0,VALID,99.6251,VALID,-0.0169808,VALID,18.8817,VALID,18,VALID,0.712891,
2005-11-04, 01:15:00,VALID,917.804,VALID,0,VALID,99.6913,VALID,0,VALID,18.8844,VALID,22,VALID,0,
2005-11-04, 01:16:00,VALID,917.79,VALID,0,VALID,99.6811,VALID,0,VALID,18.8814,VALID,7,VALID,0.598514,
2005-11-04, 01:17:00,VALID,917.774,VALID,0,VALID,99.7078,VALID,-0.0339617,VALID,18.8717,VALID,350,VALID,1.13411,
2005-11-04, 01:18:00,VALID,917.773,VALID,0,VALID,99.7091,VALID,-0.0169808,VALID,18.862,VALID,347,VALID,1.05646,
2005-11-04, 01:19:00,VALID,917.783,VALID,0,VALID,99.6862,VALID,-0.0679233,VALID,18.8655,VALID,353,VALID,0.762607,
2005-11-04, 01:20:00,VALID,917.754,VALID,0,VALID,99.6735,VALID,-0.0679233,VALID,18.859,VALID,356,VALID,1.1516,
2005-11-04, 01:21:00,VALID,917.733,VALID,0,VALID,99.634,VALID,-0.0679233,VALID,18.8754,VALID,4,VALID,0.894804,
2005-11-04, 01:22:00,VALID,917.715,VALID,0,VALID,99.601,VALID,-0.0509425,VALID,18.8715,VALID,355,VALID,0.980097,
2005-11-04, 01:23:00,VALID,917.685,VALID,0,VALID,99.5717,VALID,-0.0339617,VALID,18.8717,VALID,354,VALID,0.868576,
2005-11-04, 01:24:00,VALID,917.697,VALID,0,VALID,99.5323,VALID,-0.0849042,VALID,18.8717,VALID,340,VALID,0.561955,
2005-11-04, 01:25:00,VALID,917.7,VALID,0,VALID,99.5908,VALID,-0.0849042,VALID,18.8724,VALID,281,VALID,0.331032,
2005-11-04, 01:26:00,VALID,917.673,VALID,0,VALID,99.7002,VALID,-0.0679233,VALID,18.8717,VALID,281,VALID,0.000181686,
2005-11-04, 01:27:00,VALID,917.629,VALID,0,VALID,99.7358,VALID,-0.0339617,VALID,18.8752,VALID,7,VALID,0.62128,
2005-11-04, 01:28:00,VALID,917.61,VALID,0,VALID,99.779,VALID,-0.0679233,VALID,18.8817,VALID,12,VALID,0.605741,
2005-11-04, 01:29:00,VALID,917.593,VALID,0,VALID,99.6976,VALID,-0.101885,VALID,18.8817,VALID,347,VALID,0.952762,
2005-11-04, 01:30:00,VALID,917.58,VALID,0,VALID,99.4903,VALID,-0.0849042,VALID,18.8687,VALID,346,VALID,0.806323,
2005-11-04, 01:31:00,VALID,917.581,VALID,0,VALID,99.4255,VALID,-0.0509425,VALID,18.8948,VALID,3,VALID,0.868278,
2005-11-04, 01:32:00,VALID,917.566,VALID,0,VALID,99.414,VALID,-0.0679233,VALID,18.9008,VALID,15,VALID,0.089939,
2005-11-04, 01:33:00,VALID,917.539,VALID,0,VALID,99.4115,VALID,-0.0509425,VALID,18.9112,VALID,15,VALID,0.0649038,
2005-11-04, 01:34:00,VALID,917.538,VALID,0,VALID,99.4585,VALID,-0.0509425,VALID,18.9085,VALID,347,VALID,0.61756,
2005-11-04, 01:35:00,VALID,917.551,VALID,0,VALID,99.3568,VALID,-0.0339617,VALID,18.8914,VALID,323,VALID,1.03299,
2005-11-04, 01:36:00,VALID,917.572,VALID,0,VALID,99.3098,VALID,-0.0509425,VALID,18.8976,VALID,304,VALID,0.263139,
2005-11-04, 01:37:00,VALID,917.561,VALID,0,VALID,99.3466,VALID,-0.0679233,VALID,18.9043,VALID,257,VALID,0.454723,
2005-11-04, 01:38:00,VALID,917.563,VALID,0,VALID,99.3479,VALID,-0.0509425,VALID,18.901,VALID,55,VALID,0.660429,
2005-11-04, 01:39:00,VALID,917.574,VALID,0,VALID,99.5463,VALID,-0.0169808,VALID,18.9202,VALID,20,VALID,0.131288,
2005-11-04, 01:40:00,VALID,917.559,VALID,0,VALID,99.6378,VALID,-0.0679233,VALID,18.9304,VALID,21,VALID,0.593924,
2005-11-04, 01:41:00,VALID,917.559,VALID,0,VALID,99.7319,VALID,-0.0679233,VALID,18.914,VALID,16,VALID,0.621354,
2005-11-04, 01:42:00,VALID,917.545,VALID,0,VALID,99.8858,VALID,0,VALID,18.914,VALID,360,VALID,0.166493,
2005-11-04, 01:43:00,VALID,917.524,VALID,0,VALID,99.9418,VALID,0,VALID,18.8876,VALID,360,VALID,0.0853365,
2005-11-04, 01:44:00,VALID,917.501,VALID,0,VALID,99.9903,VALID,0,VALID,18.8782,VALID,1,VALID,0.699396,
2005-11-04, 01:45:00,VALID,917.48,VALID,0,VALID,99.999,VALID,-0.0169808,VALID,18.872,VALID,13,VALID,1.25231,
2005-11-04, 01:46:00,VALID,917.458,VALID,0,VALID,100,VALID,-0.0169808,VALID,18.8493,VALID,9,VALID,1.26399,
2005-11-04, 01:47:00,VALID,917.48,VALID,0,VALID,100,VALID,-0.0509425,VALID,18.8424,VALID,306,VALID,0.936756,
2005-11-04, 01:48:00,VALID,917.475,VALID,0,VALID,99.9954,VALID,-0.0339617,VALID,18.8456,VALID,213,VALID,0.631098,
2005-11-04, 01:49:00,VALID,917.438,VALID,0,VALID,99.9692,VALID,0.0169808,VALID,18.8412,VALID,304,VALID,0.476004,
2005-11-04, 01:50:00,VALID,917.422,VALID,0,VALID,99.9809,VALID,0.0339617,VALID,18.8477,VALID,23,VALID,0.400436,
2005-11-04, 01:51:00,VALID,917.424,VALID,0,VALID,99.9354,VALID,0.0679233,VALID,18.8509,VALID,23,VALID,0.107599,
2005-11-04, 01:52:00,VALID,917.409,VALID,0,VALID,99.8947,VALID,0.0339617,VALID,18.8541,VALID,336,VALID,0.544212,
2005-11-04, 01:53:00,VALID,917.388,VALID,0,VALID,99.6188,VALID,0.0169808,VALID,18.8839,VALID,249,VALID,0.809896,
2005-11-04, 01:54:00,VALID,917.362,VALID,0,VALID,99.4547,VALID,0.0509425,VALID,18.9162,VALID,289,VALID,0.225291,
2005-11-04, 01:55:00,VALID,917.354,VALID,0,VALID,99.4535,VALID,0.0339617,VALID,18.9155,VALID,37,VALID,0.743075,
2005-11-04, 01:56:00,VALID,917.335,VALID,0,VALID,99.4217,VALID,0,VALID,18.9158,VALID,360,VALID,0.314596,
2005-11-04, 01:57:00,VALID,917.315,VALID,0,VALID,99.4166,VALID,0.0169808,VALID,18.9093,VALID,3,VALID,0.334449,
2005-11-04, 01:58:00,VALID,917.293,VALID,0,VALID,99.5501,VALID,0.0509425,VALID,18.9058,VALID,25,VALID,1.25945,
2005-11-04, 01:59:00,VALID,917.266,VALID,0,VALID,99.7205,VALID,0.0339617,VALID,18.8959,VALID,22,VALID,1.38213,
2005-11-04, 02:00:00,VALID,917.25,VALID,0,VALID,99.8222,VALID,0.0169808,VALID,18.9031,VALID,24,VALID,1.2919,
2005-11-04, 02:01:00,VALID,917.229,VALID,0,VALID,99.9504,VALID,0.0339617,VALID,18.8929,VALID,26,VALID,0.505327,
2005-11-04, 02:02:00,VALID,917.228,VALID,0,VALID,100,VALID,0.0169808,VALID,18.8929,VALID,23,VALID,0.664993,
2005-11-04, 02:03:00,VALID,917.225,VALID,0,VALID,100,VALID,0.0169808,VALID,18.8708,VALID,20,VALID,0.5359,
2005-11-04, 02:04:00,VALID,917.222,VALID,0,VALID,100,VALID,-0.0679233,VALID,18.8625,VALID,360,VALID,0.664249,
2005-11-04, 02:05:00,VALID,917.22,VALID,0,VALID,100,VALID,-0.118866,VALID,18.8334,VALID,350,VALID,0.076029,
2005-11-04, 02:06:00,VALID,917.184,VALID,0,VALID,100,VALID,-0.101885,VALID,18.821,VALID,4,VALID,0.416159,
2005-11-04, 02:07:00,VALID,917.151,VALID,0,VALID,100,VALID,-0.0849042,VALID,18.8108,VALID,360,VALID,1.35208,
2005-11-04, 02:08:00,VALID,917.159,VALID,0,VALID,100,VALID,-0.101885,VALID,18.7979,VALID,333,VALID,0.874455,
2005-11-04, 02:09:00,VALID,917.154,VALID,0,VALID,100,VALID,-0.101885,VALID,18.7917,VALID,274,VALID,0.369186,
2005-11-04, 02:10:00,VALID,917.135,VALID,0,VALID,100,VALID,-0.101885,VALID,18.7718,VALID,342,VALID,0.564546,
2005-11-04, 02:11:00,VALID,917.118,VALID,0,VALID,100,VALID,-0.0849042,VALID,18.8044,VALID,22,VALID,1.03925,
2005-11-04, 02:12:00,VALID,917.101,VALID,0,VALID,100,VALID,-0.101885,VALID,18.8173,VALID,4,VALID,1.14291,
2005-11-04, 02:13:00,VALID,917.059,VALID,0,VALID,100,VALID,-0.0679233,VALID,18.8078,VALID,355,VALID,0.791606,
2005-11-04, 02:14:00,VALID,917.081,VALID,0,VALID,100,VALID,-0.101885,VALID,18.785,VALID,6,VALID,1.30305,
2005-11-04, 02:15:00,VALID,917.045,VALID,0,VALID,100,VALID,-0.101885,VALID,18.7852,VALID,12,VALID,0.772879,
2005-11-04, 02:16:00,VALID,917.042,VALID,0,VALID,100,VALID,-0.0679233,VALID,18.7718,VALID,355,VALID,0.918064,
2005-11-04, 02:17:00,VALID,917.026,VALID,0,VALID,100,VALID,-0.0849042,VALID,18.772,VALID,317,VALID,0.640253,
2005-11-04, 02:18:00,VALID,917.045,VALID,0,VALID,100,VALID,-0.101885,VALID,18.7656,VALID,330,VALID,1.51199,
2005-11-04, 02:19:00,VALID,917.049,VALID,0,VALID,100,VALID,-0.0679233,VALID,18.7852,VALID,342,VALID,1.49219,
2005-11-04, 02:20:00,VALID,917.073,VALID,0,VALID,99.9791,VALID,-0.0679233,VALID,18.824,VALID,311,VALID,0.514172,
2005-11-04, 02:21:00,VALID,917.064,VALID,0,VALID,99.9278,VALID,-0.0679233,VALID,18.827,VALID,300,VALID,0.323103,
2005-11-04, 02:22:00,VALID,917.049,VALID,0,VALID,99.8744,VALID,-0.0509425,VALID,18.8267,VALID,14,VALID,0.740945,
2005-11-04, 02:23:00,VALID,917.072,VALID,0,VALID,99.9138,VALID,-0.0679233,VALID,18.8464,VALID,357,VALID,0.549414,
2005-11-04, 02:24:00,VALID,917.078,VALID,0,VALID,99.9891,VALID,-0.0849042,VALID,18.8528,VALID,321,VALID,0.240451,
2005-11-04, 02:25:00,VALID,917.078,VALID,0,VALID,99.9301,VALID,-0.0339617,VALID,18.8498,VALID,254,VALID,0.855183,
2005-11-04, 02:26:00,VALID,917.073,VALID,0,VALID,99.8159,VALID,-0.0509425,VALID,18.8531,VALID,335,VALID,0.705305,
2005-11-04, 02:27:00,VALID,917.071,VALID,0,VALID,99.7014,VALID,-0.0509425,VALID,18.8563,VALID,53,VALID,0.197443,
2005-11-04, 02:28:00,VALID,917.057,VALID,0,VALID,99.6544,VALID,-0.0509425,VALID,18.8627,VALID,14,VALID,0.412609,
2005-11-04, 02:29:00,VALID,917.022,VALID,0,VALID,99.7726,VALID,-0.0849042,VALID,18.8657,VALID,21,VALID,1.07572,
2005-11-04, 02:30:00,VALID,917.003,VALID,0,VALID,99.9303,VALID,-0.0509425,VALID,18.866,VALID,20,VALID,0.658203,
2005-11-04, 02:31:00,VALID,917.038,VALID,0,VALID,100,VALID,-0.0849042,VALID,18.8528,VALID,16,VALID,0.232851,
2005-11-04, 02:32:00,VALID,917.031,VALID,0,VALID,100,VALID,-0.0849042,VALID,18.8461,VALID,15,VALID,0.338542,
2005-11-04, 02:33:00,VALID,916.966,VALID,0,VALID,100,VALID,-0.0339617,VALID,18.8464,VALID,24,VALID,1.42708,
2005-11-04, 02:34:00,VALID,916.964,VALID,0,VALID,100,VALID,0.0169808,VALID,18.826,VALID,335,VALID,1.4397,
2005-11-04, 02:35:00,VALID,916.915,VALID,0,VALID,100,VALID,0.0339617,VALID,18.8253,VALID,15,VALID,1.47954,
2005-11-04, 02:36:00,VALID,916.913,VALID,0,VALID,100,VALID,0.0509425,VALID,18.8768,VALID,349,VALID,1.0806,
2005-11-04, 02:37:00,VALID,916.922,VALID,0,VALID,99.9774,VALID,0.0339617,VALID,18.9001,VALID,30,VALID,1.05418,
2005-11-04, 02:38:00,VALID,916.884,VALID,0,VALID,99.9941,VALID,0.0509425,VALID,18.8973,VALID,9,VALID,0.870427,
2005-11-04, 02:39:00,VALID,916.868,VALID,0,VALID,100,VALID,0.0169808,VALID,18.8805,VALID,353,VALID,1.48491,
2005-11-04, 02:40:00,VALID,916.859,VALID,0,VALID,100,VALID,0.0169808,VALID,18.8608,VALID,327,VALID,0.544695,
2005-11-04, 02:41:00,VALID,916.823,VALID,0,VALID,100,VALID,0.0339617,VALID,18.8576,VALID,323,VALID,0.704578,
2005-11-04, 02:42:00,VALID,916.815,VALID,0,VALID,100,VALID,0.0509425,VALID,18.8641,VALID,322,VALID,0.245536,
2005-11-04, 02:43:00,VALID,916.812,VALID,0,VALID,100,VALID,0.0169808,VALID,18.8641,VALID,358,VALID,0.643787,
2005-11-04, 02:44:00,VALID,916.778,VALID,0,VALID,100,VALID,0.0849042,VALID,18.8606,VALID,24,VALID,1.21476,
2005-11-04, 02:45:00,VALID,916.791,VALID,0,VALID,100,VALID,0.0849042,VALID,18.8507,VALID,19,VALID,0.865141,
2005-11-04, 02:46:00,VALID,916.778,VALID,0,VALID,100,VALID,0.101885,VALID,18.8445,VALID,23,VALID,0.955966,
2005-11-04, 02:47:00,VALID,916.754,VALID,0,VALID,100,VALID,0.0679233,VALID,18.8447,VALID,20,VALID,1.07273,
2005-11-04, 02:48:00,VALID,916.756,VALID,0,VALID,100,VALID,0,VALID,18.8226,VALID,10,VALID,0.332386,
2005-11-04, 02:49:00,VALID,916.741,VALID,0,VALID,100,VALID,-0.0679233,VALID,18.8071,VALID,359,VALID,0.32431,
2005-11-04, 02:50:00,VALID,916.711,VALID,0,VALID,100,VALID,-0.0509425,VALID,18.8175,VALID,360,VALID,1.20685,
2005-11-04, 02:51:00,VALID,916.705,VALID,0,VALID,100,VALID,-0.0169808,VALID,18.8009,VALID,359,VALID,1.32603,
2005-11-04, 02:52:00,VALID,916.751,VALID,0,VALID,100,VALID,-0.0339617,VALID,18.7944,VALID,9,VALID,0.563281,
2005-11-04, 02:53:00,VALID,916.762,VALID,0,VALID,100,VALID,-0.0509425,VALID,18.7815,VALID,18,VALID,0.591974,
2005-11-04, 02:54:00,VALID,916.751,VALID,0,VALID,100,VALID,-0.0339617,VALID,18.7683,VALID,1,VALID,0.708203,
2005-11-04, 02:55:00,VALID,916.765,VALID,0,VALID,100,VALID,-0.0679233,VALID,18.7787,VALID,5,VALID,1.06504,
2005-11-04, 02:56:00,VALID,916.774,VALID,0,VALID,100,VALID,-0.0849042,VALID,18.7556,VALID,16,VALID,0.551525,
2005-11-04, 02:57:00,VALID,916.747,VALID,0,VALID,100,VALID,-0.0509425,VALID,18.7494,VALID,11,VALID,1.15785,
2005-11-04, 02:58:00,VALID,916.753,VALID,0,VALID,100,VALID,-0.0849042,VALID,18.7686,VALID,316,VALID,0.499442,
2005-11-04, 02:59:00,VALID,916.759,VALID,0,VALID,100,VALID,-0.0849042,VALID,18.7884,VALID,259,VALID,0.145712,
2005-11-04, 03:00:00,VALID,916.756,VALID,0,VALID,100,VALID,-0.0679233,VALID,18.7882,VALID,121,VALID,0.407965,
2005-11-04, 03:01:00,VALID,916.745,VALID,0,VALID,100,VALID,-0.0679233,VALID,18.7882,VALID,25,VALID,0.874455,
2005-11-04, 03:02:00,VALID,916.739,VALID,0,VALID,100,VALID,-0.0339617,VALID,18.7912,VALID,19,VALID,1.24609,
2005-11-04, 03:03:00,VALID,916.729,VALID,0,VALID,100,VALID,-0.101885,VALID,18.7979,VALID,342,VALID,1.19331,
2005-11-04, 03:04:00,VALID,916.734,VALID,0,VALID,100,VALID,-0.0339617,VALID,18.7884,VALID,34,VALID,0.890816,
2005-11-04, 03:05:00,VALID,916.731,VALID,0,VALID,100,VALID,-0.0509425,VALID,18.7914,VALID,33,VALID,0.58631,
2005-11-04, 03:06:00,VALID,916.733,VALID,0,VALID,100,VALID,-0.0679233,VALID,18.8048,VALID,24,VALID,1.03683,
2005-11-04, 03:07:00,VALID,916.712,VALID,0,VALID,100,VALID,-0.0679233,VALID,18.8006,VALID,29,VALID,1.06159,
2005-11-04, 03:08:00,VALID,916.724,VALID,0,VALID,100,VALID,-0.0509425,VALID,18.8078,VALID,357,VALID,0.303385,
2005-11-04, 03:09:00,VALID,916.728,VALID,0,VALID,100,VALID,-0.0849042,VALID,18.8046,VALID,16,VALID,0.331759,
2005-11-04, 03:10:00,VALID,916.727,VALID,0,VALID,100,VALID,-0.0679233,VALID,18.7979,VALID,15,VALID,0.885352,
2005-11-04, 03:11:00,VALID,916.741,VALID,0,VALID,100,VALID,-0.0679233,VALID,18.824,VALID,5,VALID,1.62092,
2005-11-04, 03:12:00,VALID,916.753,VALID,0,VALID,100,VALID,-0.0509425,VALID,18.8464,VALID,23,VALID,0.857851,
2005-11-04, 03:13:00,VALID,916.762,VALID,0,VALID,100,VALID,-0.0679233,VALID,18.8692,VALID,22,VALID,0.867369,
2005-11-04, 03:14:00,VALID,916.765,VALID,0,VALID,100,VALID,-0.0339617,VALID,18.869,VALID,284,VALID,0.970656,
2005-11-04, 03:15:00,VALID,916.787,VALID,0,VALID,100,VALID,-0.0679233,VALID,18.872,VALID,246,VALID,0.505145,
2005-11-04, 03:16:00,VALID,916.812,VALID,0,VALID,100,VALID,-0.0679233,VALID,18.8879,VALID,5,VALID,0.544212,
2005-11-04, 03:17:00,VALID,916.805,VALID,0,VALID,99.9809,VALID,-0.0169808,VALID,18.9006,VALID,23,VALID,0.732955,
2005-11-04, 03:18:00,VALID,916.814,VALID,0,VALID,99.9977,VALID,-0.0169808,VALID,18.9204,VALID,344,VALID,0.445313,
2005-11-04, 03:19:00,VALID,916.823,VALID,0,VALID,100,VALID,-0.0849042,VALID,18.9103,VALID,322,VALID,0.454993,
2005-11-04, 03:20:00,VALID,916.824,VALID,0,VALID,99.9954,VALID,-0.0339617,VALID,18.9105,VALID,328,VALID,0.395419,
2005-11-04, 03:21:00,VALID,916.858,VALID,0,VALID,100,VALID,-0.101885,VALID,18.9142,VALID,244,VALID,0.283794,
2005-11-04, 03:22:00,VALID,916.861,VALID,0,VALID,100,VALID,-0.0849042,VALID,18.911,VALID,177,VALID,0.234375,
2005-11-04, 03:23:00,VALID,916.867,VALID,0,VALID,100,VALID,-0.101885,VALID,18.9077,VALID,166,VALID,0.0325521,
2005-11-04, 03:24:00,VALID,916.866,VALID,0,VALID,100,VALID,-0.0849042,VALID,18.9077,VALID,345,VALID,0.613991,
2005-11-04, 03:25:00,VALID,916.855,VALID,0,VALID,100,VALID,-0.101885,VALID,18.9075,VALID,13,VALID,0.621466,
2005-11-04, 03:26:00,VALID,916.866,VALID,0,VALID,100,VALID,-0.101885,VALID,18.911,VALID,285,VALID,0.652439,
2005-11-04, 03:27:00,VALID,916.864,VALID,0,VALID,100,VALID,-0.0849042,VALID,18.9115,VALID,30,VALID,1.28455,
2005-11-04, 03:28:00,VALID,916.851,VALID,0,VALID,100,VALID,-0.0849042,VALID,18.9112,VALID,17,VALID,1.03497,
2005-11-04, 03:29:00,VALID,916.851,VALID,0,VALID,100,VALID,-0.0849042,VALID,18.9142,VALID,30,VALID,1.16597,
2005-11-04, 03:30:00,VALID,916.85,VALID,0,VALID,100,VALID,-0.101885,VALID,18.8948,VALID,16,VALID,0.603981,
2005-11-04, 03:31:00,VALID,916.872,VALID,0,VALID,100,VALID,-0.0509425,VALID,18.8909,VALID,12,VALID,0.0426136,
2005-11-04, 03:32:00,VALID,916.877,VALID,0,VALID,100,VALID,-0.0849042,VALID,18.8884,VALID,66,VALID,0.465732,
2005-11-04, 03:33:00,VALID,916.862,VALID,0,VALID,100,VALID,-0.0679233,VALID,18.9013,VALID,21,VALID,1.57795,
2005-11-04, 03:34:00,VALID,916.881,VALID,0,VALID,100,VALID,-0.101885,VALID,18.9045,VALID,19,VALID,1.27248,
2005-11-04, 03:35:00,VALID,916.898,VALID,0,VALID,100,VALID,-0.0169808,VALID,18.901,VALID,87,VALID,0.639353,
2005-11-04, 03:36:00,VALID,916.911,VALID,0,VALID,100,VALID,-0.0509425,VALID,18.8911,VALID,23,VALID,0.670603,
2005-11-04, 03:37:00,VALID,916.925,VALID,0,VALID,100,VALID,-0.0339617,VALID,18.8911,VALID,23,VALID,0.291606,